Tracking 35036 objects as of 15-Aug-2026
HD Live streaming from Space Station
objects crossing your sky now

STARLINK-38120


10-day predictions
STARLINK-38120 is classified as:


NORAD ID: 100120
Int'l Code: 2026-166V
Launch date: July 21, 2026
Source: United States (US)
Launch site: AIR FORCE WESTERN TEST RANGE (AFWTR)
Your satellite tracking list
Your tracking list is empty




NASA's NSSDC Master Catalog

Two Line Element Set (TLE):
1 A0120U 26166V   26227.55857621  .00003609  00000-0  25070-4 0  9998
2 A0120  97.2841 244.1076 0001796  93.8899 266.2571 15.75176667  3945
Source of the keplerian elements: AFSPC